TimePDT,TemperatureF,Dew PointF,Humidity,Sea Level PressureIn,VisibilityMPH,Wind Direction,Wind SpeedMPH,Gust SpeedMPH,PrecipitationIn,Events,Conditions,WindDirDegrees,DateUTC
12:56 AM,54.0,46.0,75,30.03,10.0,West,18.4,-,N/A,,Partly Cloudy,270,2013-06-20 07:56:00
1:56 AM,53.1,46.0,77,30.02,10.0,West,16.1,-,N/A,,Partly Cloudy,270,2013-06-20 08:56:00
2:56 AM,53.1,46.0,77,30.01,10.0,West,13.8,-,N/A,,Partly Cloudy,260,2013-06-20 09:56:00
3:56 AM,53.1,46.0,77,29.99,10.0,West,11.5,-,N/A,,Partly Cloudy,260,2013-06-20 10:56:00
4:56 AM,52.0,46.0,80,29.99,10.0,West,12.7,-,N/A,,Partly Cloudy,280,2013-06-20 11:56:00
5:43 AM,51.8,46.4,82,29.99,10.0,West,11.5,-,N/A,,Partly Cloudy,280,2013-06-20 12:43:00
5:56 AM,52.0,46.9,83,30.00,10.0,West,15.0,-,N/A,,Partly Cloudy,280,2013-06-20 12:56:00
6:56 AM,54.0,48.0,80,30.00,10.0,West,8.1,-,N/A,,Partly Cloudy,280,2013-06-20 13:56:00
7:56 AM,57.0,48.0,72,30.01,10.0,WNW,6.9,-,N/A,,Partly Cloudy,300,2013-06-20 14:56:00
8:56 AM,60.1,46.9,62,30.01,10.0,WNW,9.2,-,N/A,,Partly Cloudy,300,2013-06-20 15:56:00
9:56 AM,62.1,46.0,56,30.00,10.0,WNW,11.5,-,N/A,,Partly Cloudy,300,2013-06-20 16:56:00
10:56 AM,63.0,46.9,56,30.00,10.0,WNW,17.3,-,N/A,,Partly Cloudy,300,2013-06-20 17:56:00
11:56 AM,64.0,46.9,54,30.00,10.0,WNW,18.4,-,N/A,,Partly Cloudy,290,2013-06-20 18:56:00
12:56 PM,66.9,46.0,47,30.00,10.0,West,20.7,-,N/A,,Clear,280,2013-06-20 19:56:00
1:56 PM,66.0,46.0,48,30.00,10.0,West,23.0,29.9,N/A,,Partly Cloudy,280,2013-06-20 20:56:00
2:56 PM,66.0,45.0,47,30.00,10.0,West,27.6,34.5,N/A,,Partly Cloudy,270,2013-06-20 21:56:00
3:56 PM,64.9,45.0,48,30.00,10.0,West,24.2,35.7,N/A,,Partly Cloudy,260,2013-06-20 22:56:00
4:56 PM,66.0,44.1,45,29.98,10.0,West,33.4,40.3,N/A,,Partly Cloudy,270,2013-06-20 23:56:00
5:56 PM,63.0,45.0,52,29.98,10.0,West,32.2,42.6,N/A,,Partly Cloudy,260,2013-06-21 00:56:00
6:56 PM,60.1,46.0,60,29.98,10.0,West,35.7,42.6,N/A,,Partly Cloudy,260,2013-06-21 01:56:00
7:56 PM,57.9,46.0,65,29.99,10.0,West,34.5,43.7,N/A,,Partly Cloudy,260,2013-06-21 02:56:00
8:56 PM,57.0,46.0,67,29.98,10.0,West,28.8,38.0,N/A,,Partly Cloudy,270,2013-06-21 03:56:00
9:56 PM,55.9,46.0,69,29.99,10.0,West,25.3,33.4,N/A,,Clear,270,2013-06-21 04:56:00
10:56 PM,55.9,46.0,69,30.00,10.0,West,20.7,28.8,N/A,,Clear,280,2013-06-21 05:56:00
11:56 PM,54.0,46.9,77,30.00,10.0,West,18.4,-,N/A,,Partly Cloudy,270,2013-06-21 06:56:00